www.pogodaiklimat.ru

Погода и климат >> Архив погоды >> Россия >> Кемеровская область >> Яя


ПОГОДА в Яе

  • Прогноз погоды в Яе
  • Монитор погоды в Яе

АРХИВ ПОГОДЫ в Яе

Время (UTC), дата Ветер
(напр.,м/с)
 
Видим.   Явления Облачность Т
(С)
Тd
(С)
f
(%)
Тe
(С)
Тes
(С)
Комфортность P
(гПа)
Po
(гПа)
Тmin
(С)
Tmax
(С)
R
(мм)
R24
(мм)
S
(см)
09 9.07 ЮЗ 2 20 км 7 баллов +26.2 +10.3 37 +27 +30 жарко 1003.9 988.0
12 9.07 ЮЗ 1 20 км 10/4
[Cb calv Ac trans Ci fib]
+26.6 +12.1 41 +28 +29 жарко 1002.2 986.4 +26.9
15 9.07 ЮВ 1 20 км 7 баллов +19.1 +15.2 78 +22 +22 комфорт 1003.0 986.7
18 9.07 ЮЗ 1 20 км 7 баллов +14.7 +13.1 90 +15 +15 1001.8 985.3
21 9.07 С 2 20 км 10 баллов +16.2 +13.3 83 +16 +16 1004.5 988.0
00 10.07 Ю 2 20 км {ливн. осадки} 10/8 570 м
[Cb calv Ac trans]
+15.6 +14.0 90 +15 +16 1002.8 986.4 +14.3 0.4
03 10.07 З 3 20 км 10 баллов +17.6 +15.0 85 +18 +18 1004.4 988.0
06 10.07 СЗ 3 20 км {ливн. осадки} 10/8 600 м
[Cb calv Ac und]
+19.3 +13.9 71 +21 +21 комфорт 1007.0 990.7
09 10.07 З 3 20 км 6 баллов +22.5 +10.9 48 +25 +28 комфорт 1008.2 992.0
12 10.07 З 3 20 км 9/4 600 м
[Cb calv Ac trans]
+22.0 +12.1 53 +24 +25 комфорт 1008.7 992.5 +23.2 0.0
15 10.07 З 1 20 км 10 баллов +15.9 +13.0 83 +17 +17 1012.6 996.0
18 10.07 штиль 0 20 км 10 баллов +13.1 +11.8 92 +13 +13 1015.5 998.7
21 10.07 СЗ 1 20 км 6 баллов +12.5 +11.4 93 +12 +12 1016.9 1000.0
00 11.07 штиль 0 20 км 3/0
[Ac trans]
+13.5 +12.3 92 +13 +15 1017.7 1000.8 +10.5 0.5
03 11.07 С 3 20 км 6 баллов +17.7 +11.7 68 +18 +21 1019.3 1002.7
06 11.07 С 2 20 км 8/4 600 м
[Cb calv Ac trans]
+21.1 +8.0 43 +22 +27 комфорт 1020.5 1004.0
09 11.07 С 2 20 км 7 баллов +21.7 +6.4 37 +22 +26 комфорт 1019.1 1002.7
12 11.07 СВ 2 20 км 4/4 600 м
[Cu hum]
+20.8 +8.8 46 +23 +24 комфорт 1018.7 1002.2 +23.1
15 11.07 С 1 20 км ясно +13.4 +10.2 81 +14 +14 1019.6 1002.7
18 11.07 штиль 0 20 км ясно +7.4 +6.3 93 +6 +6 1021.3 1004.0
21 11.07 Ю 1 4000 м дымка ясно +5.0 +4.1 94 +4 +4 1021.5 1004.0
00 12.07 штиль 0 500 м туман ясно +8.4 +7.4 93 +7 +10 1021.0 1003.8 +4.6
03 12.07 В 3 10 км ясно +20.3 +11.2 56 +22 +30 комфорт 1020.5 1004.0
06 12.07 В 4 20 км {туман} 4/4 300 м
[Cu med, cong]
+22.8 +10.2 45 +25 +31 комфорт 1020.4 1004.0
09 12.07 СВ 4 20 км 2 балла +24.0 +9.6 40 +25 +31 комфорт 1019.0 1002.7
12 12.07 В 3 20 км ясно +23.7 +9.2 40 +25 +27 комфорт 1017.5 1001.2 +24.5
15 12.07 СВ 2 20 км 1 балл +17.6 +11.4 67 +18 +18 1017.9 1001.3
18 12.07 С 1 20 км 1/0
[Ci fib]
+9.7 +8.1 90 +9 +9 1019.8 1002.7
21 12.07 ЮЗ 1 20 км 1 балл +7.5 +6.4 93 +6 +6 1018.6 1001.3
00 13.07 штиль 0 20 км 1/0
[Ci fib]
+13.5 +11.8 89 +13 +15 1017.6 1000.7 +6.8
03 13.07 В 4 20 км 2 балла +21.8 +11.5 52 +24 +29 комфорт 1017.7 1001.3
06 13.07 СВ 4 20 км 10 баллов +23.5 +10.5 44 +25 +25 комфорт 1016.3 1000.0
12 13.07 СВ 1 20 км 10/0
[Ac trans Cs]
+24.3 +14.2 53 +27 +29 жарко 1013.2 997.0 +25.2
18 13.07 штиль 0 20 км туман поземный 7 баллов +11.8 +10.9 94 +11 +11 1014.2 997.3
21 13.07 штиль 0 10 км туман поземный 6 баллов +9.3 +8.2 93 +8 +8 1014.4 997.3
00 14.07 С 2 4000 м в посл. час туман 8/0
[Ci fib]
+15.6 +14.5 93 +15 +17 1012.6 996.0 +8.7
03 14.07 С 3 20 км 2 балла +22.5 +15.8 66 +27 +33 душно 1013.6 997.3
06 14.07 СВ 4 20 км 7 баллов +23.7 +15.7 61 +27 +30 жарко 1013.5 997.3
09 14.07 СВ 5 20 км 2 балла +26.2 +11.5 40 +27 +32 жарко 1013.4 997.3
12 14.07 СВ 3 20 км 3/0
[Ac trans Ci fib]
+25.4 +11.3 41 +27 +29 жарко 1011.7 995.6 +26.2
15 14.07 штиль 0 20 км 2 балла +17.3 +12.6 74 +17 +17 1013.9 997.3
18 14.07 штиль 0 20 км ясно +11.0 +9.7 92 +10 +10 1012.9 996.0
21 14.07 штиль 0 20 км туман поземный ясно +8.2 +7.1 93 +7 +7 1013.1 996.0
00 15.07 С 2 20 км ясно +14.8 +11.1 78 +15 +16 1011.8 995.1 +7.2
03 15.07 С 3 20 км 4 балла +19.0 +10.0 56 +20 +25 1012.5 996.0
06 15.07 С 4 20 км 7 баллов +20.5 +9.7 50 +22 +25 комфорт 1011.1 994.7
09 15.07 СВ 4 20 км 7 баллов +22.3 +10.8 48 +24 +26 комфорт 1011.0 994.7
12 15.07 СВ 6-11
{11}
20 км 10/6 630 м
[Cb calv Ac trans]
+20.0 +12.3 61 +21 +22 комфорт 1010.0 993.6 +22.6
15 15.07 СЗ 1 20 км 10 баллов +16.9 +14.2 84 +18 +18 1011.2 994.7
18 15.07 штиль 0 20 км 10 баллов +13.8 +12.5 92 +13 +13 1010.0 993.3
21 15.07 С 1 10 км слаб. ливневой дождь 10 баллов +13.3 +12.2 93 +13 +13 1008.7 992.0
00 16.07 С 1 20 км {ливн. осадки} 10/8 630 м
[Cb calv Ac trans]
+15.5 +13.7 89 +16 +16 1007.2 990.6 +12.7 0.0
03 16.07 С 2 20 км 10 баллов +17.2 +14.3 83 +18 +18 1007.2 990.7

 

Местоположение метеостанции Яя (Кемеровская область, Россия): широта 56.20 долгота 86.47 высота над уровнем моря 141 м.

В архиве по умолчанию представлена погода в Яе за последнюю неделю. Архивные данные за месяц целиком и за предыдущие месяцы, начиная с января 2011 года, Вы можете получить, выбрав интересующий диапазон дат из раскрывающегося списка и нажав кнопку "Ввод!".


*Определитесь, кто Вы:
робот инопланетянин человек

Внимание! Время в таблицах - всемирное. Для получения местного времени необходимо прибавить поправку, которая равна 7 ч.

Смотрите также архив погоды в соседних городах и на ближайших метеорологических станциях:

Погода в Тайге (Кемеровская область, Россия) (55 км)
Погода в Барзасе (Кемеровская область, Россия) (57 км)
Погода в Мариинске (Кемеровская область, Россия) (75 км)
Погода в Кемерово АМС (Кемеровская область, Россия) (91 км)
Погода в Первомайском (Томская область, Россия) (98 км)
Погода в Томске (Томская область, Россия) (101 км)
Погода в Кемерово (Кемеровская область, Россия) (107 км)
Погода в Топках (Кемеровская область, Россия) (117 км)
Погода в Юрге (Кемеровская область, Россия) (118 км)
Погода в Тисуле (Кемеровская область, Россия) (124 км)

Пояснения к столбцам:

Ветер - указаны скорость ветра в м/с - средняя за 10 мин, порывы в срок и между сроками (в фигурных скобках) и направление, откуда дует ветер: С - северный, СВ - северо-восточный, В - восточный, ЮВ - юго-восточный, Ю - южный, ЮЗ - юго-западный, З - западный, СЗ - северо-западный.
Видимость - горизонтальная дальность видимости в метрах или километрах. При видимости от 1 до 10 км при отсутствии осадков обычно наблюдается дымка, при ухудшении видимости до 1 км и менее - туман. В сухую погоду видимость может ухудшаться дымом, пылью или мглою.
Явления - указаны атмосферные явления, наблюдавшиеся в срок или в последний час перед сроком; фигурными скобками обозначены явления, наблюдавшиеся между сроками (за 1-3 часа до срока); квадратными скобками обозначены град или гололедные отложения с указанием их диаметра в мм.
Облачность - указаны через наклонную черту общая и нижняя облачность в баллах и высота нижней границы облаков в метрах; квадратными скобками обозначены формы облаков: Ci - перистые, Cs - перисто-слоистые, Cc - перисто-кучевые, Ac - высококучевые, As - высокослоистые, Sc - слоисто-кучевые, Ns - слоисто-дождевые, Cu - кучевые, Cb - кучево-дождевые. Подробнее классификацию облаков см. в Атласе облаков (PDF).
T - Температура воздуха - температура, измеренная на высоте 2 м над землей.
Td - Температура точки росы - температура, при понижении до которой содержащийся в воздухе водяной пар достигнет насыщения.
f - Относительная влажность воздуха - влажноcть воздуха, измеренная на высоте 2 м над землей.
Te - Эффективная температура - температура, которую ощущает одетый по сезону человек в тени. Характеристика душности погоды. При расчете учитывается влияние влажности воздуха и скорости ветра на теплоощущения человека.
Tes - Эффективная температура на солнце - температура, которую ощущает человек, с поправкой на солнечный нагрев. Характеристика знойности погоды. Зависит от высоты солнца над горизонтом, облачности и скорости ветра. Ночью, в пасмурную погоду, а также при ветре 12 м/с и более поправка равна нулю.
P - Атмосферное давление - приведенное к уровню моря атмосферное давление.
Po - Атмосферное давление - измеренное на уровне метеостанции атмосферное давление.
Tmin - Минимальная температура - минимум температуры воздуха на высоте 2 м над землей.
Tmax - Максимальная температура - максимум температуры воздуха на высоте 2 м над землей.
R - Количество осадков - Количество выпавших осадков за период времени, мм. При наведении курсора мыши на число - период времени, за который выпало указанное количество осадков.
R24 - Количество осадков - Количество выпавших осадков за 24 часа, мм.
S - Снежный покров - Высота снежного покрова, см. При наведении курсора мыши на число - состояние снежного покрова и степень покрытия местности в баллах.